Regional Weather Roundup
Issued by NWS

Home | Current Version | Previous Version | Graphics & Text | Print | Product List | Glossary On
Versions: 1 2 3 4 5 6 7 8 9 10 11 12 13 14 15 16 17 18 19 20 21 22 23 24 25 26 27
000
ASUS45 KTFX 242210
RWRMT
MONTANA REGIONAL WEATHER ROUNDUP
NATIONAL WEATHER SERVICE GREAT FALLS MT
300 PM MST FRI FEB 24 2017

NOTE: "FAIR" INDICATES FEW OR NO CLOUDS BELOW 12000 FEET WITH NO
SIGNIFICANT WEATHER AND/OR OBSTRUCTIONS TO VISIBILITY.

MTZ001>007-043-242300-
WEST OF THE DIVIDE

CITY           SKY/WX    TMP DP  RH WIND       PRES   REMARKS
KALISPELL      CLOUDY    31  18  58 CALM      30.09F
MISSOULA       MOSUNNY   32  16  51 NW8       30.08F WCI  25
BUTTE          CLOUDY    25  10  53 CALM      29.94S
MULLAN PASS    CLOUDY    19  14  81 NW3       29.96S
ANACONDA         N/A     28  10  47 N7        29.97S WCI  21
DEER LODGE       N/A     28   9  43 NW9       30.01R WCI  20
EUREKA           N/A     27  18  69 E3        30.13F
HAMILTON         N/A     32  12  43 N5        30.04F
LIBBY            N/A     32  18  55 N3        30.10F
PLAINS           N/A     34  19  54 CALM      30.11F
RONAN            N/A     34  16  48 W1        30.12S
THOMPSON FALLS   N/A     33  19  56 W7        30.15F WCI  27
$$

MTZ008-052>055-242300-
SOUTHWEST MONTANA

CITY           SKY/WX    TMP DP  RH WIND       PRES   REMARKS
BOZEMAN        CLOUDY    29  19  66 E5        29.98S
DILLON         CLOUDY    27  11  51 VRB5      29.93S
W YELLOWSTONE  CLOUDY    18   9  68 SW17      29.91R HAZE    WCI   2
ENNIS          MOSUNNY   27  14  59 S8        29.98S WCI  18
THREE FORKS      N/A     32  32 100 NE2       29.98R
TWIN BRIDGES     N/A     31  10  41 NW2       29.95S
$$

MTZ009-010-012-014-046-048-049-054-242300-
EAST SLOPES AND CENTRAL MONTANA

CITY           SKY/WX    TMP DP  RH WIND       PRES   REMARKS
CUT BANK       MOSUNNY   28  16  60 N15       30.02R WCI  16
GREAT FALLS    CLOUDY    32  17  54 VRB5      30.01S
MALMSTROM AFB  FLURRIES  30  21  70 N8        30.03F WCI  22
HELENA         CLOUDY    33  16  49 W7        29.99S WCI  27
AUGUSTA        PTSUNNY   27  11  51 CALM      29.98S
BOWMANS CRNR     N/A     29  10  46 N7        29.97S WCI  21
CHOTEAU          N/A     30  10  43 N9        30.03S WCI  22
CONRAD           N/A     30  17  58 NW8       30.04S WCI  22
POWER            N/A     31  12  46 N13       30.01S WCI  21
RAYNESFORD     PTSUNNY   26  20  79 NW8       30.01R WCI  17
ULM            FLURRIES  27  21  77 MISG      30.02S
$$

MTZ011-013-016-021-045-047-050-051-242300-
NORTH CENTRAL MONTANA

CITY           SKY/WX    TMP DP  RH WIND       PRES   REMARKS
HAVRE          CLOUDY    30  25  81 CALM      30.06S
LEWISTOWN      CLOUDY    27  20  75 NW7       29.98S WCI  19
N BAR RANCH    CLOUDY    25  19  80 VRB5      29.98S
CHINOOK          N/A     30  25  80 W7        30.07S WCI  23
DENTON         FLURRIES  26  22  84 NW15G24   29.98S WCI  14
FORT BENTON      N/A     34  18  51 MISG      30.06S
GEYSER         FLURRIES  26  22  86 NE7       29.99R WCI  18
GRASS RANGE    PTSUNNY   29  20  71 NW6       29.96R WCI  22
JUDITH GAP     PTSUNNY   23  16  73 NW8       29.96R WCI  14
ROY            SNOWSHWR  28  23  83 MISG      29.99S
STANFORD       PTSUNNY   26  22  85 N10       29.97S WCI  17
WINIFRED       FLURRIES  26  22  85 W10       30.00S WCI  17
$$

MTZ017>020-022>027-061-062-242300-
NORTHEAST MONTANA

CITY           SKY/WX    TMP DP  RH WIND       PRES   REMARKS
GLASGOW        CLOUDY    31  24  75 S8        30.05F WCI  23
JORDAN           N/A     35  19  52 S3        30.03S
SIDNEY         CLOUDY    28  16  60 S8        30.11S WCI  20
WOLF POINT     CLOUDY    32  22  66 SW8       30.09S WCI  25
PLENTYWOOD       N/A     28  21  74 SW8       30.07F WCI  20
POPLAR           N/A     30  19  64 SW8       30.09F WCI  23
SCOBEY           N/A     29  18  63 S6        30.02F WCI  23
$$

MTZ028>42-056>058-242300-
SOUTHCENTRAL AND SOUTHEAST MONTANA

CITY           SKY/WX    TMP DP  RH WIND       PRES   REMARKS
BAKER          CLOUDY    29  15  56 SW3       30.05S
BILLINGS       CLOUDY    29  24  82 NW5       29.99S
LIVINGSTON     LGT SNOW  27  18  69 W5        29.95S
MILES CITY     CLOUDY    33  19  56 SE6       30.05R WCI  28
BIG TIMBER     SUNNY     28  18  64 CALM      29.99R
EKALAKA          N/A     27  11  51 W2        29.99S
FORSYTH          N/A     34  19  55 E7        30.02S WCI  28
HARLOWTON      PTSUNNY   25  17  70 CALM      29.97S
LAUREL           N/A     30  19  63 CALM      29.98S
$$

REGIONAL REPORTS...DAKOTAS

CITY           SKY/WX    TMP DP  RH WIND       PRES   REMARKS
WILLISTON      CLOUDY    27  15  61 SW12      30.11S WCI  17
MINOT          SUNNY     31  15  52 W3        30.09F
DICKINSON      CLOUDY    25  12  58 W7        30.06F WCI  17
BEACH            N/A    N/A N/A N/A MISG        N/A
CROSBY         CLOUDY    28  19  69 SW10      30.11S WCI  19
TIOGA          CLOUDY    25  21  86 SW12      30.10F WCI  14
WATFORD CITY   PTSUNNY   27  16  63 SW8       30.11S WCI  18
BISMARCK       SUNNY     30  16  56 NW12      30.12F WCI  20
GRAND FORKS    MOSUNNY   22   9  57 N17       30.11F WCI   8
FARGO          CLOUDY    23  15  71 N22G28    30.08R WCI   8
BUFFALO SD       N/A     29  12  49 S3        29.98F
RAPID CITY     CLOUDY    22  15  75 S7        30.05S WCI  13
$$

REGIONAL REPORTS...WYOMING/IDAHO/WASHINGTON

CITY           SKY/WX    TMP DP  RH WIND       PRES   REMARKS
GILLETTE       CLOUDY    27  21  78 S12       29.96S WCI  17
SHERIDAN       SUNNY     28  20  71 S6        29.97R WCI  22
BUFFALO WY     CLOUDY    25  18  74 SE9       29.93S WCI  15
CODY           CLOUDY    27  16  63 NE8       29.94R WCI  19
YELLOWSTONE LA   N/A     15   8  73 W8        29.87R WCI   4
IDAHO FALLS    LGT SNOW  20  17  88 SW18      30.04R FOG     WCI   5
SALMON         CLOUDY    34  16  47 NE3       29.97S
BOISE          PTSUNNY   36  15  42 W14       30.13F WCI  27
SPOKANE        PTSUNNY   32  24  72 E3        30.14F
$$

REGIONAL REPORTS...ALBERTA

CITY           SKY/WX    TMP DP  RH WIND       PRES   REMARKS
EDMONTON       PTSUNNY   16   9  73 NW7       30.19F WCI   6
CALGARY        CRYSTALS  19  12  73 N14       30.07F WCI   6
LETHBRIDGE     FLURRIES  27  23  86 W5        30.07S
MEDICINE HAT   PTSUNNY   30  18  59 NW3       30.07S
WATERTON GATE    N/A     23  14  68 NE7         N/A  WCI  15
CARDSTON         N/A     27  16  63 N5          N/A
MILK RIVER       N/A     27  21  80 NW12        N/A  WCI  16
ONEFOUR          N/A     27  21  80 NW12        N/A  WCI  16
$$

REGIONAL REPORTS...SASKATCHEWAN

CITY           SKY/WX    TMP DP  RH WIND       PRES   REMARKS
SWIFT CURRENT  PTSUNNY   27  19  74 NW10      30.02F WCI  17
REGINA         FLURRIES  30  21  69 W12       30.04F WCI  21
SASKATOON      LGT SNOW  25  21  86 N9        30.08F WCI  15
CYPRESS HILLS    N/A     21  16  79 NW6         N/A  WCI  14
VAL MARIE        N/A     30  27  86 SW6         N/A  WCI  24
ROCKGLEN         N/A     27  23  86 W12         N/A  WCI  16
ASSINIBOIA       N/A     18   9  68 NW13        N/A  WCI   4
$$




USA.gov is the U.S. government's official web portal to all federal, state and local government web resources and services.